KJFK

John F Kennedy International Airport

ICAO Code KJFK
IATA Code JFK
Name John F Kennedy International Airport
Location New York, New-York, US
Elevation 13 Feet / 4 Meters
Latitude 40.63980103
Longitude -73.77890015
METAR KJFK 090951Z 33015G23KT 10SM FEW036 00/M07 A3010 RMK AO2 SLP192 T00001067
Extra information Display Charts and CFS
Display NOTAMS
Runway Length Width Surface Elevation
04L 12079 ft 200 ft Concrete - Grooved 12 ft
04R 8400 ft 200 ft ASP 13 ft
13L 10000 ft 200 ft Concrete 13 ft
13R 14511 ft 200 ft Concrete 13 ft
22R 12079 ft 200 ft Concrete - Grooved 13 ft
22L 8400 ft 200 ft ASP 13 ft
31R 10000 ft 200 ft Concrete 13 ft
31L 14511 ft 200 ft Concrete 13 ft